Flag for U.S.A. Weather past 2 weeks in Frankfort, Kentucky, U.S.A.

Now
81 °F

Sunny.


Feels Like: 81 °F
Forecast: 57 / 83 °F
Wind: 6 mph from North

Location: Capital City Airport

Current Time: Jul 25, 2014 at 5:33:02 PM

Latest Report: Jul 25, 2014 at 4:53 PM


Visibility: 10 mi

Pressure: 30.00 "Hg

Humidity: 42%

Dew point: 56 °F

Location of FrankfortLocation

Historic Weather in Frankfort — Graph

°F

Frankfort temperature yesterday

Maximum temperature yesterday: 77 °F (at 6:53 PM)
Minimum temperature yesterday: 64 °F (at 7:53 AM)
Average temperature yesterday: 71 °F

Past Weeks' High & Low Weather Summary

 TemperatureHumidityPressure
High92 °F (Jul 13, 2:53 PM)100% (Jul 20, 4:01 AM)30.19 "Hg (Jul 20, 4:01 AM)
Low52 °F (Jul 16, 6:53 AM)36% (Jul 10, 5:53 PM)29.82 "Hg (Jul 14, 6:53 PM)
Average72 °F74%30.03 "Hg
* Reported Jul 10 3:53 PM — Jul 25 3:53 PM, Frankfort, Weather by CustomWeather, © 2014

Note: Actual official high and low records may vary slightly from our data, if they occured in-between our weather recording intervals... More about our weather records

Advertising

Frankfort weather history for previous 24 hours

 ConditionsComfort  
Time TempWeatherWind HumidityBarometerVisibility
3:53 PM
Jul 25
80 °FSunny.7 mph42%30.02 "Hg10 mi
2:53 PM81 °FPassing clouds.3 mph39%30.03 "Hg10 mi
1:53 PM81 °FSunny.5 mph39%30.03 "Hg10 mi
12:53 PM78 °FScattered clouds.No wind43%30.06 "Hg10 mi
11:53 AM79 °FPartly sunny.3 mph42%30.07 "Hg10 mi
10:53 AM74 °FSunny.3 mph56%30.08 "Hg10 mi
9:53 AM69 °FSunny.No wind68%30.08 "Hg10 mi
8:53 AM64 °FSunny.3 mph78%30.07 "Hg10 mi
7:53 AM58 °FSunny.No wind87%30.08 "Hg10 mi
6:53 AM55 °FClear.3 mph93%30.07 "Hg10 mi
5:53 AM55 °FClear.No wind93%30.05 "Hg10 mi
4:53 AM56 °FPassing clouds.No wind93%30.05 "Hg10 mi
3:53 AM58 °FClear.No wind90%30.03 "Hg10 mi
2:53 AM57 °FClear.No wind93%30.04 "Hg10 mi
1:53 AM61 °FClear.3 mph83%30.04 "Hg10 mi
12:53 AM60 °FClear.No wind86%30.03 "Hg10 mi
11:53 PM
Jul 24
67 °FPassing clouds.3 mph66%30.03 "Hg10 mi
10:53 PM69 °FOvercast.5 mph66%30.05 "Hg10 mi
9:53 PM68 °FPartly sunny.No wind68%30.03 "Hg10 mi
8:53 PM72 °FSunny.5 mph53%30.02 "Hg10 mi
7:53 PM76 °FPartly sunny.6 mph47%29.99 "Hg10 mi
6:53 PM77 °FSunny.7 mph45%29.98 "Hg10 mi
5:53 PM75 °FPassing clouds.7 mph47%29.99 "Hg10 mi
Weather by CustomWeather, © 2014

See weather overviewHow to use our weather pages